This is the latest recevied weather packets stored in our database for station/object KC5TIL-3. If no packets are shown the sender has not sent any weather packets the latest 10 day(s).
| Time | Temp. | Humidity | Pressure | Rain* | Wind** | Luminosity | Snow |
|---|---|---|---|---|---|---|---|
| 1777802015 | 15° C | 36% | 1017.8 hPa | 0 mm | 2.68 m/s, 216° | - | - |
| 1777801419 | 15° C | 35% | 1017.8 hPa | 0 mm | 3.13 m/s, 192° | - | - |
| 1777801118 | 15° C | 35% | 1017.8 hPa | 0 mm | 2.68 m/s, 207° | - | - |
| 1777800819 | 15° C | 35% | 1017.8 hPa | 0 mm | 3.13 m/s, 199° | - | - |
| 1777800521 | 15.56° C | 35% | 1017.8 hPa | 0 mm | 3.13 m/s, 146° | - | - |
| 1777800220 | 15.56° C | 35% | 1017.8 hPa | 0 mm | 3.58 m/s, 210° | - | - |
| 1777799922 | 15.56° C | 35% | 1017.8 hPa | 0 mm | 3.58 m/s, 221° | - | - |
| 1777799624 | 15.56° C | 34% | 1017.8 hPa | 0 mm | 4.02 m/s, 159° | - | - |
| 1777799322 | 15.56° C | 34% | 1017.8 hPa | 0 mm | 4.47 m/s, 155° | - | - |
| 1777798726 | 15.56° C | 34% | 1017.8 hPa | 0 mm | 3.13 m/s, 202° | - | - |
| 1777798419 | 15.56° C | 34% | 1017.8 hPa | 0 mm | 3.13 m/s, 218° | - | - |
| 1777798118 | 15.56° C | 34% | 1017.8 hPa | 0 mm | 3.13 m/s, 201° | - | - |
| 1777797814 | 15.56° C | 33% | 1017.8 hPa | 0 mm | 3.13 m/s, 182° | - | - |
| 1777797514 | 15.56° C | 33% | 1017.8 hPa | 0 mm | 3.58 m/s, 217° | - | - |
| 1777797215 | 15.56° C | 33% | 1016.8 hPa | 0 mm | 3.13 m/s, 177° | - | - |
| 1777796916 | 15.56° C | 33% | 1016.8 hPa | 0 mm | 2.68 m/s, 157° | - | - |
| 1777796615 | 15.56° C | 32% | 1016.8 hPa | 0 mm | 3.58 m/s, 182° | - | - |
| 1777796317 | 15.56° C | 32% | 1017.8 hPa | 0 mm | 3.58 m/s, 209° | - | - |
| 1777796014 | 15.56° C | 32% | 1017.8 hPa | 0 mm | 3.13 m/s, 232° | - | - |
| 1777795713 | 15.56° C | 32% | 1017.8 hPa | 0 mm | 3.13 m/s, 224° | - | - |
| 1777795415 | 15.56° C | 32% | 1017.8 hPa | 0 mm | 3.13 m/s, 189° | - | - |
| 1777795116 | 15.56° C | 32% | 1017.8 hPa | 0 mm | 3.13 m/s, 160° | - | - |
| 1777794815 | 15.56° C | 32% | 1017.8 hPa | 0 mm | 2.68 m/s, 189° | - | - |
| 1777794219 | 15.56° C | 31% | 1017.8 hPa | 0 mm | 3.58 m/s, 217° | - | - |
| 1777793917 | 16.11° C | 30% | 1017.8 hPa | 0 mm | 3.13 m/s, 195° | - | - |
* Rain latest hour (hover to see other rain measurements)
** Current wind speed in m/s (hover to see current wind gust speed)